DAH6000 DAAS-DAOO

Flight info

Callsign DAH6000
Flight time 0h 53m
Altitude 36000
Route BABOR UA31 BNA UA411 MOS
Aircraft B738/M-SDE2E3FGHIRWXY/LB1

Departure

Time 2026-04-27 15:48
Airport Ain Arnat Airport (DAAS)

Arrival

Time 2026-04-27 16:42
Airport Oran Es-Sénia (Ahmed Ben Bella) International Airport (DAOO)
Time Latitude Longitude Altitude Speed Heading
2026-04-27 15:34 36.17635 5.33087 3321 ft 0 kts 50°
2026-04-27 15:40 36.17648 5.33101 3321 ft 5 kts 32°
2026-04-27 15:41 36.17681 5.33089 3321 ft 6 kts 301°
2026-04-27 15:41 36.17683 5.33032 3321 ft 7 kts 267°
2026-04-27 15:41 36.17681 5.32974 3321 ft 7 kts 266°
2026-04-27 15:41 36.17677 5.32914 3321 ft 7 kts 266°
2026-04-27 15:42 36.17674 5.32856 3321 ft 7 kts 267°
2026-04-27 15:42 36.17672 5.32797 3321 ft 8 kts 266°
2026-04-27 15:42 36.17668 5.32711 3321 ft 13 kts 267°
2026-04-27 15:42 36.17663 5.32578 3321 ft 18 kts 266°
2026-04-27 15:43 36.17658 5.32414 3324 ft 19 kts 268°
2026-04-27 15:43 36.17652 5.32253 3328 ft 18 kts 268°
2026-04-27 15:43 36.17648 5.32097 3331 ft 18 kts 268°
2026-04-27 15:43 36.17643 5.31947 3334 ft 17 kts 269°
2026-04-27 15:44 36.17649 5.31802 3337 ft 17 kts 272°
2026-04-27 15:44 36.17654 5.31709 3339 ft 16 kts 274°
2026-04-27 15:44 36.17663 5.31529 3354 ft 15 kts 273°
2026-04-27 15:44 36.17668 5.31457 3350 ft 7 kts 283°
2026-04-27 15:45 36.17678 5.31431 3353 ft 0 kts 306°
2026-04-27 15:46 36.17683 5.31426 3347 ft 4 kts 315°
2026-04-27 15:46 36.17725 5.31404 3346 ft 9 kts 354°
2026-04-27 15:47 36.17776 5.31421 3353 ft 7 kts 57°
2026-04-27 15:47 36.17782 5.31458 3342 ft 3 kts 88°
2026-04-27 15:47 36.17782 5.31463 3342 ft 0 kts 89°
2026-04-27 15:47 36.17786 5.31549 3342 ft 41 kts 86°
2026-04-27 15:48 36.17818 5.32262 3329 ft 122 kts 88°
2026-04-27 15:48 36.17879 5.33579 3410 ft 177 kts 88°
2026-04-27 15:48 36.17891 5.35099 4403 ft 176 kts 89°
2026-04-27 15:49 36.19113 5.37868 5698 ft 217 kts 34°
2026-04-27 15:49 36.20657 5.38397 5933 ft 247 kts 360°
2026-04-27 15:49 36.22388 5.37810 6278 ft 274 kts 331°
2026-04-27 15:49 36.23889 5.36287 7023 ft 284 kts 314°
2026-04-27 15:50 36.25186 5.34463 8132 ft 281 kts 309°
2026-04-27 15:50 36.26431 5.32582 9164 ft 285 kts 307°
2026-04-27 15:50 36.27699 5.30647 10064 ft 292 kts 306°
2026-04-27 15:50 36.29011 5.28661 10748 ft 308 kts 307°
2026-04-27 15:51 36.30443 5.26508 10960 ft 338 kts 307°
2026-04-27 15:51 36.31995 5.24197 11368 ft 357 kts 307°
2026-04-27 15:51 36.33604 5.21819 12124 ft 362 kts 307°
2026-04-27 15:51 36.35232 5.19424 13066 ft 363 kts 307°
2026-04-27 15:52 36.36863 5.17027 13970 ft 365 kts 307°
2026-04-27 15:52 36.38509 5.14605 14722 ft 369 kts 307°
2026-04-27 15:52 36.40170 5.12157 15440 ft 374 kts 308°
2026-04-27 15:52 36.41832 5.09706 16141 ft 378 kts 308°
2026-04-27 15:53 36.43554 5.07165 16911 ft 381 kts 308°
2026-04-27 15:53 36.45268 5.04634 17640 ft 385 kts 308°
2026-04-27 15:53 36.46924 5.02001 18318 ft 388 kts 301°
2026-04-27 15:53 36.48165 4.99019 18936 ft 390 kts 291°
2026-04-27 15:54 36.48985 4.95815 19604 ft 391 kts 281°
2026-04-27 15:54 36.49443 4.92479 20274 ft 392 kts 278°
2026-04-27 15:54 36.49844 4.89120 20905 ft 395 kts 277°
2026-04-27 15:54 36.50235 4.85724 21512 ft 398 kts 277°
2026-04-27 15:55 36.50630 4.82314 22397 ft 401 kts 278°
2026-04-27 15:55 36.51035 4.78868 22644 ft 404 kts 277°
2026-04-27 15:55 36.51448 4.75425 23264 ft 402 kts 278°
2026-04-27 15:55 36.51865 4.71979 23768 ft 406 kts 278°
2026-04-27 15:56 36.52288 4.68486 24166 ft 411 kts 278°
2026-04-27 15:56 36.52715 4.64965 24650 ft 413 kts 278°
2026-04-27 15:56 36.53143 4.61435 25160 ft 414 kts 278°
2026-04-27 15:56 36.53567 4.57937 25628 ft 415 kts 278°
2026-04-27 15:57 36.54004 4.54330 26019 ft 418 kts 278°
2026-04-27 15:57 36.54436 4.50747 26400 ft 421 kts 278°
2026-04-27 15:57 36.54871 4.47131 26782 ft 424 kts 278°
2026-04-27 15:57 36.55308 4.43494 27187 ft 427 kts 278°
2026-04-27 15:58 36.55746 4.39837 27613 ft 428 kts 278°
2026-04-27 15:58 36.56184 4.36169 28058 ft 429 kts 278°
2026-04-27 15:58 36.56622 4.32485 28436 ft 432 kts 278°
2026-04-27 15:58 36.57055 4.28832 28803 ft 434 kts 278°
2026-04-27 15:59 36.57495 4.25116 29203 ft 435 kts 278°
2026-04-27 15:59 36.57933 4.21404 29735 ft 433 kts 278°
2026-04-27 15:59 36.58368 4.17718 30313 ft 428 kts 278°
2026-04-27 15:59 36.58797 4.14067 30859 ft 424 kts 277°
2026-04-27 16:00 36.59221 4.10446 31304 ft 422 kts 277°
2026-04-27 16:00 36.59643 4.06837 31738 ft 421 kts 277°
2026-04-27 16:00 36.60062 4.03240 32126 ft 420 kts 277°
2026-04-27 16:00 36.60479 3.99642 32528 ft 419 kts 277°
2026-04-27 16:01 36.60895 3.96058 33003 ft 417 kts 277°
2026-04-27 16:01 36.61306 3.92496 33458 ft 415 kts 277°
2026-04-27 16:01 36.61715 3.88944 33860 ft 414 kts 277°
2026-04-27 16:01 36.62122 3.85402 34212 ft 413 kts 277°
2026-04-27 16:02 36.62528 3.81864 34534 ft 413 kts 277°
2026-04-27 16:02 36.62932 3.78327 34809 ft 413 kts 277°
2026-04-27 16:02 36.63337 3.74777 35024 ft 415 kts 277°
2026-04-27 16:02 36.63742 3.71216 35331 ft 415 kts 277°
2026-04-27 16:03 36.64145 3.67659 35613 ft 415 kts 277°
2026-04-27 16:03 36.64548 3.64107 35930 ft 414 kts 277°
2026-04-27 16:03 36.64949 3.60547 36004 ft 416 kts 277°
2026-04-27 16:04 36.65728 3.53434 36026 ft 413 kts 277°
2026-04-27 16:04 36.66479 3.46359 36038 ft 411 kts 276°
2026-04-27 16:05 36.67225 3.39318 36040 ft 410 kts 276°
2026-04-27 16:05 36.67969 3.32281 36052 ft 410 kts 276°
2026-04-27 16:06 36.68709 3.25242 36049 ft 410 kts 276°
2026-04-27 16:06 36.68896 3.18163 36047 ft 410 kts 264°
2026-04-27 16:07 36.68260 3.11099 36045 ft 411 kts 264°
2026-04-27 16:07 36.67629 3.04015 36038 ft 412 kts 264°
2026-04-27 16:08 36.67013 2.96908 36047 ft 413 kts 264°
2026-04-27 16:08 36.66398 2.89785 36039 ft 415 kts 264°
2026-04-27 16:09 36.65779 2.82636 36039 ft 416 kts 264°
2026-04-27 16:09 36.64838 2.71875 36037 ft 417 kts 264°
2026-04-27 16:10 36.63568 2.57526 36035 ft 417 kts 264°
2026-04-27 16:11 36.62609 2.46821 36037 ft 416 kts 264°
2026-04-27 16:12 36.61637 2.36077 36024 ft 416 kts 264°
2026-04-27 16:13 36.60658 2.25350 36027 ft 416 kts 263°
2026-04-27 16:13 36.58696 2.14877 36036 ft 417 kts 248°
2026-04-27 16:14 36.54123 2.01588 36031 ft 417 kts 249°
2026-04-27 16:15 36.49603 1.88300 36006 ft 418 kts 248°
2026-04-27 16:16 36.47316 1.81580 35470 ft 423 kts 248°
2026-04-27 16:16 36.45046 1.74927 34673 ft 414 kts 248°
2026-04-27 16:17 36.42800 1.68261 32817 ft 424 kts 249°
2026-04-27 16:17 36.40534 1.61452 31301 ft 425 kts 248°
2026-04-27 16:18 36.38308 1.54783 30337 ft 413 kts 248°
2026-04-27 16:18 36.36115 1.48238 28997 ft 408 kts 248°
2026-04-27 16:19 36.35029 1.45002 28320 ft 406 kts 248°
2026-04-27 16:19 36.33945 1.41779 27710 ft 403 kts 248°
2026-04-27 16:20 36.30743 1.32276 25933 ft 394 kts 248°
2026-04-27 16:20 36.29689 1.29154 25371 ft 391 kts 248°
2026-04-27 16:20 36.27598 1.22974 24272 ft 386 kts 248°
2026-04-27 16:21 36.26560 1.19909 23731 ft 384 kts 248°
2026-04-27 16:21 36.23485 1.10846 22003 ft 376 kts 248°
2026-04-27 16:22 36.22472 1.07869 21466 ft 373 kts 248°
2026-04-27 16:22 36.20470 1.01990 20392 ft 368 kts 248°
2026-04-27 16:22 36.19477 0.99078 19869 ft 366 kts 248°
2026-04-27 16:23 36.18491 0.96190 19347 ft 364 kts 248°
2026-04-27 16:23 36.16546 0.90500 18370 ft 359 kts 247°
2026-04-27 16:23 36.15575 0.87665 17842 ft 357 kts 247°
2026-04-27 16:24 36.14611 0.84851 17334 ft 353 kts 247°
2026-04-27 16:24 36.12711 0.79314 16365 ft 347 kts 247°
2026-04-27 16:25 36.10841 0.73875 15409 ft 340 kts 247°
2026-04-27 16:25 36.09000 0.68529 14488 ft 335 kts 247°
2026-04-27 16:26 36.07184 0.63265 13581 ft 330 kts 247°
2026-04-27 16:26 36.05392 0.58083 12756 ft 323 kts 247°
2026-04-27 16:27 36.03643 0.53036 12244 ft 320 kts 247°
2026-04-27 16:27 36.00991 0.45389 11508 ft 322 kts 247°
2026-04-27 16:28 35.99230 0.40321 11021 ft 320 kts 247°
2026-04-27 16:28 35.97479 0.35298 10550 ft 315 kts 247°
2026-04-27 16:29 35.94890 0.27872 9840 ft 313 kts 248°
2026-04-27 16:30 35.93203 0.23037 9307 ft 297 kts 248°
2026-04-27 16:30 35.91880 0.19253 8866 ft 283 kts 247°
2026-04-27 16:31 35.89484 0.12735 8698 ft 263 kts 237°
2026-04-27 16:31 35.87203 0.09322 8695 ft 254 kts 232°
2026-04-27 16:32 35.85373 0.05616 8692 ft 262 kts 257°
2026-04-27 16:32 35.84836 0.03474 8699 ft 263 kts 247°
2026-04-27 16:33 35.83291 -0.00632 8400 ft 264 kts 249°
2026-04-27 16:33 35.82606 -0.02727 8124 ft 263 kts 248°
2026-04-27 16:33 35.81888 -0.04790 7841 ft 261 kts 247°
2026-04-27 16:33 35.81167 -0.06840 7572 ft 260 kts 247°
2026-04-27 16:34 35.80459 -0.08877 7303 ft 258 kts 247°
2026-04-27 16:34 35.79753 -0.10913 6957 ft 260 kts 246°
2026-04-27 16:34 35.79021 -0.12999 6675 ft 267 kts 247°
2026-04-27 16:34 35.78292 -0.15100 6491 ft 268 kts 246°
2026-04-27 16:35 35.77563 -0.17214 6163 ft 268 kts 246°
2026-04-27 16:35 35.76843 -0.19320 5851 ft 266 kts 246°
2026-04-27 16:35 35.75370 -0.23498 5238 ft 265 kts 246°
2026-04-27 16:36 35.74679 -0.25552 5144 ft 256 kts 247°
2026-04-27 16:36 35.73993 -0.27531 5059 ft 248 kts 245°
2026-04-27 16:36 35.73285 -0.29437 4933 ft 242 kts 244°
2026-04-27 16:36 35.72612 -0.31282 4835 ft 234 kts 245°
2026-04-27 16:37 35.71950 -0.33147 4593 ft 240 kts 246°
2026-04-27 16:37 35.71288 -0.35070 4353 ft 249 kts 247°
2026-04-27 16:37 35.70630 -0.37052 4162 ft 251 kts 248°
2026-04-27 16:37 35.69984 -0.38988 4010 ft 240 kts 246°
2026-04-27 16:38 35.69348 -0.40830 3782 ft 226 kts 246°
2026-04-27 16:38 35.68751 -0.42545 3526 ft 216 kts 246°
2026-04-27 16:38 35.68158 -0.44266 3181 ft 219 kts 247°
2026-04-27 16:38 35.67589 -0.45970 2880 ft 211 kts 246°
2026-04-27 16:39 35.67030 -0.47601 2581 ft 202 kts 247°
2026-04-27 16:39 35.66494 -0.49167 2290 ft 195 kts 246°
2026-04-27 16:39 35.65972 -0.50666 2025 ft 185 kts 246°
2026-04-27 16:39 35.65481 -0.52107 1772 ft 180 kts 248°
2026-04-27 16:40 35.64998 -0.53518 1608 ft 178 kts 248°
2026-04-27 16:40 35.64537 -0.54902 1414 ft 177 kts 249°
2026-04-27 16:40 35.64064 -0.56306 1182 ft 175 kts 249°
2026-04-27 16:40 35.63594 -0.57668 941 ft 173 kts 250°
2026-04-27 16:41 35.63130 -0.59027 727 ft 168 kts 250°
2026-04-27 16:41 35.62696 -0.60318 506 ft 157 kts 254°
2026-04-27 16:41 35.62282 -0.61549 317 ft 149 kts 250°
2026-04-27 16:41 35.61917 -0.62615 309 ft 118 kts 247°
2026-04-27 16:42 35.61717 -0.63197 307 ft 44 kts 247°
2026-04-27 16:42 35.61666 -0.63345 307 ft 16 kts 248°
2026-04-27 16:42 35.61607 -0.63463 309 ft 17 kts 219°
2026-04-27 16:42 35.61510 -0.63474 309 ft 13 kts 159°
2026-04-27 16:43 35.61434 -0.63417 309 ft 13 kts 134°
2026-04-27 16:43 35.61395 -0.63318 309 ft 13 kts 101°
2026-04-27 16:43 35.61420 -0.63212 309 ft 13 kts 67°
2026-04-27 16:43 35.61460 -0.63095 308 ft 16 kts 68°
2026-04-27 16:44 35.61505 -0.62964 309 ft 18 kts 67°
2026-04-27 16:44 35.61555 -0.62821 309 ft 19 kts 67°
2026-04-27 16:44 35.61605 -0.62672 308 ft 19 kts 69°
2026-04-27 16:44 35.61655 -0.62528 309 ft 18 kts 67°
2026-04-27 16:45 35.61703 -0.62389 308 ft 18 kts 68°
2026-04-27 16:45 35.61752 -0.62243 309 ft 18 kts 67°
2026-04-27 16:45 35.61799 -0.62106 309 ft 17 kts 68°
2026-04-27 16:45 35.61847 -0.61964 308 ft 19 kts 67°
2026-04-27 16:46 35.61897 -0.61817 309 ft 19 kts 67°
2026-04-27 16:46 35.61946 -0.61673 308 ft 18 kts 68°
2026-04-27 16:46 35.61994 -0.61534 308 ft 17 kts 67°
2026-04-27 16:46 35.62022 -0.61408 309 ft 14 kts 105°
2026-04-27 16:47 35.61972 -0.61315 309 ft 13 kts 84°
2026-04-27 16:47 35.61992 -0.61242 309 ft 7 kts 69°
2026-04-27 16:47 35.61994 -0.61198 309 ft 5 kts 122°
2026-04-27 16:47 35.61970 -0.61170 309 ft 5 kts 140°
2026-04-27 16:48 35.61939 -0.61139 309 ft 5 kts 141°
2026-04-27 16:48 35.61921 -0.61121 309 ft 1 kts 140°
2026-04-27 16:48 35.61919 -0.61119 309 ft 0 kts 140°
2026-04-27 16:50 35.73157 -0.29777 4912 ft 240 kts 245°